{"data":{"norad_id":65757,"epoch":"2026-09-20T02:12:44.917920Z","epoch_age_seconds":143993,"freshness":"FRESH","line1":"1 65757U 25216Z   26263.09218655  .00016044  00000+0  48495-3 0  9998","line2":"2 65757  53.1582 147.3517 0000549  73.6057 286.5006 15.34399636 56344","mean_motion":15.34399636,"eccentricity":5.49e-5,"inclination_deg":53.1582,"raan_deg":147.3517,"arg_perigee_deg":73.6057,"mean_anomaly_deg":286.5006,"bstar":0.00048495,"rev_number":5634,"period_min":93.847780344494,"perigee_km":462.32875990345,"apogee_km":463.07988428061,"semimajor_km":6840.841322092,"source":"CELESTRAK","updated_at":"2026-09-21T09:00:35.711848Z"}}